loading
|

OBJECT B, 57425

Orbit data source: Space-Track

OBJECT B, 57425 is a satellite owned by Sixiang Aishu (CN) in LEO that was launched on Sun, 23 Jul 2023 UTC via a CHANG ZHENG 2D launch vehicle from the Taiyaun Space Center, China (TSC). Unknown objects in Earth's orbit typically refer to objects detected orbiting the Earth but have not yet been identified or cataloged. These objects could be anything from previously untracked satellites, spent rocket stages, debris from satellite collisions, or even natural meteoroids temporarily captured by Earth's gravity.

Loading next visibility...
Loading greatness...
OBJECT B details
Identifier
57425, 2023-104B
Orbit
LEO
Last TLE update10 hours ago
Origin
Flag of CNSixiang Aishu (CN / PRC)
ManufacturerYinhe
MissionOperational Commercial Imaging
Bus & MotorAS, Unknown motor
Mass~100 kg wet, ~100 kg dry
Launch date (UTC)
2023-07-23 (1 year ago)
Launch vehicle
CHANG ZHENG 2D
Launch site
Taiyaun Space Center, China (TSC)
Object typeUnknown
Shape & HBRBox + 2 Pan, 1.5 m
Radar Cross Section0.363 m², Medium (>0.1 m² and < 1m²)

Expand to show TLE details & history

TLE from 10 hours ago
0 OBJECT B
1 57425U 23104B   24279.54673292  .00042975  00000-0  12796-2 0  9999
2 57425  97.3437 346.6175 0012112 158.6664 201.5087 15.34503206 67277
Epoch: 2024-10-05T13:07Z
Definitive object data (Epoch: 2024-10-05T13:07:17.724Z)
Latitude0.00004°
Longitude135.09216°
Altitude473.22 km
Speed7.625 km/s
True Right ascension23h 06m 28s
True Declination0° 00' 00"
Sunlit
Object was in full shadow at TLE epoch
Predictive object data (real-time)
Latitude82.69586°
Longitude44.74253°
Altitude472.633 km
Speed7.638 km/s
Apparent Right ascension04h 51m 45s
Apparent Declination33° 52' 23"
Sunlit
Object is in daylight
Predictive observer data (real-time)
Local Sidereal Time16:54:07
Azimuth0.513° NNE
Elevation-16.209°
Doppler factor1
Orbital elements
Apogee467.622 km
Perigee451.059 km
Semi-major axis6,837.477 km
Eccentricity0.0012112
Inclination97.3437°
RAAN346.6175°
Arg. of periapsis158.6664°
True anomaly201.45788°
Mean anomaly201.5087°
Eccentric anomaly201.48328°
Mean motion3.83883 °/min
BSTAR0.0012796
Period93.78 mins
No data available
No data available

OBJECT B Visibility forecast

Observer location: 39.9160978°, -105.1181434

OBJECT B is not visible in the next 10 days
Span
Click to sort rows by Start time (UTC) header in descending order
Start Az.
Max El. time (UTC)
Max El. Az.
Max El.
End time (UTC)
End Az.